Weather Service Report


442 
ASHW40 PHFO 261843
RWRHI 

WEATHER ROUNDUP FOR HAWAII
NATIONAL WEATHER SERVICE HONOLULU HI
800 AM HST SUN MAR 26 2017

THIS IS AN AUTOMATED REPORT THAT HAS NOT BEEN QUALITY CONTROLLED.

NOTE..."FAIR" INDICATES FEW OR NO CLOUDS BELOW 12,000 FEET WITH NO
SIGNIFICANT WEATHER AND/OR OBSTRUCTIONS TO VISIBILITY.

* - THESE SITES REPORT LIMITED FIELDS

HIZ001>004-261900-
KAUAI-NIIHAU-
  
CITY           SKY/WX    TMP DP  RH WIND       PRES   REMARKS
LIHUE APT      PTSUNNY   76  67  73 E12       30.23R                  
PORT ALLEN*      N/A     75 N/A N/A NE14G20     N/A                   
POIPU*           N/A     75 N/A N/A NE8G17      N/A                   
PRINCEVILLE*     N/A     72 N/A N/A SE5         N/A                   
KOKOLE POINT*  NOT AVBL                                               
MOLOAA DAIRY*    N/A     73  66  78 E7G13       N/A                   
WAIMEA HTS*      N/A     79  64  61 E3G10       N/A                   
PUU OPAE*      NOT AVBL                                               
PUU LUA*       NOT AVBL                                               
MAKAHA RIDGE*    N/A     68  64  88 S1          N/A                   
$$

HIZ005>011-261900-
OAHU-
  
CITY           SKY/WX    TMP DP  RH WIND       PRES   REMARKS
HONOLULU       MOSUNNY   78  64  61 NE9       30.18R                  
KALAELOA       MOSUNNY   79  65  62 NE10      30.19R                  
KANEOHE MCB    PTSUNNY   78  66  66 E8G18     30.17R                  
WHEELER FIELD  FAIR      74  64  71 E15       30.19                   
BELLOWS*         N/A    N/A N/A N/A E21         N/A                   
KAHUKU*          N/A    N/A N/A N/A NE10G17     N/A                   
WHEELER*         N/A    N/A N/A N/A NE9G16      N/A                   
WAIANAE HARBOR   N/A    N/A N/A N/A NE7G14      N/A                   
DILLINGHAM*      N/A     88  79  74 SW2         N/A  HX 102           
KAHUKU TRN*      N/A     82  73  74 W9G23       N/A                   
KAWAILOA*        N/A     70  63  78 E6G18       N/A                   
KII*             N/A     75  66  73 E16G25      N/A                   
MAKUA RANGE*     N/A     73  63  68 W5          N/A                   
OAHU FOREST NW   N/A     70  63  78 CALM        N/A                   
SCHOFIELD BRK*   N/A     70  59  68 MISG        N/A                   
SCHOFIELD S*   NOT AVBL                                               
WAIANAE VLY*     N/A     73  63  68 N8G16       N/A                   
KUAOKALA*        N/A     73   3   6 NE12G17     N/A                   
HONOULIUULI*   NOT AVBL                                               
MOKUOLOE IS*   NOT AVBL                                               
PALEHUA*         N/A     70  63  78 NE12G23     N/A                   
WAIAWA PHB*    NOT AVBL                                               
$$

HIZ012>013-261900-
MOLOKAI-
  
CITY           SKY/WX    TMP DP  RH WIND       PRES   REMARKS
MOLOKAI AIRPT  SUNNY     78  61  55 NE9       30.18R                  
KALAUPAPA      NOT AVBL                                               
MAKAPULAPAI*     N/A     79  66  65 E16G28      N/A                   
MOLOKAI 1*     NOT AVBL                                               
PUU ALII*        N/A     59  56  90 NW3G20      N/A                   
$$

HIZ016-261900-
KAHOOLAWE-
  
CITY           SKY/WX    TMP DP  RH WIND       PRES   REMARKS
KAHOOLAWE*     NOT AVBL                                               
HAKIOAWA*        N/A     72  65  79 MISG      30.59R                  
HONOKANAIA*      N/A     75  65  70 NE16G33   30.08S                  
KANELOA*         N/A     73  66  78 E24G39      N/A                   
KEALIALALO*    NOT AVBL                                               
LUA MAKIKA*    NOT AVBL                                               
$$

HIZ014>015-261900-
LANAI-
  
CITY           SKY/WX    TMP DP  RH WIND       PRES   REMARKS
LANAI CITY     FAIR      72  63  73 NE7       30.23R                  
LANAI 1*       NOT AVBL                                               
$$

HIZ017>028-261900-
MAUI-
  
CITY           SKY/WX    TMP DP  RH WIND       PRES   REMARKS
KAHULUI        MOSUNNY   77  67  71 NE17G31   30.16R                  
KAPALUA-W MAUI MOSUNNY   75  64  69 NE8       30.18                   
HANA AIRPORT   SUNNY     77  68  73 E10       30.25S                  
HANA*            N/A     73 N/A N/A SE3G9       N/A                   
HALEAKALA SUMM   N/A     46  16  29 NE20G47     N/A                   
MAALAEA BAY*     N/A     77 N/A N/A N17G25      N/A                   
HALEAKALA*     NOT AVBL                                               
KAUPO GAP*       N/A     75  61  60 VRB16G31    N/A                   
KULA 1*          N/A    N/A N/A N/A E6          N/A                   
$$

HIZ023>026-261900-
BIG ISLAND OF HAWAII COAST AND LOWER SLOPES-
  
CITY           SKY/WX    TMP DP  RH WIND       PRES   REMARKS
KAILUA KONA    MOSUNNY   78  64  61 CALM      30.14R                  
HILO           CLOUDY    72  66  83 W12       30.23S                  
HONOKAA*         N/A     72 N/A N/A VRB1        N/A                   
KAWAIHAE MWT*    N/A     79 N/A N/A VRB1G10     N/A                   
KAWAIHAE*        N/A     79 N/A N/A NW10      30.14S                  
SOUTH POINT*     N/A     73 N/A N/A N17G25      N/A                   
UPOLU AIRPORT* NOT AVBL                                               
KAMUELA*       MOCLDY    66  59  77 NE16G30   30.26R                  
HAKALAU*         N/A     57  44  61 SE5G10      N/A                   
KALOKO-HONOKO*   N/A     81  63  54 E3        30.14R                  
PALI 2*          N/A     70  54  56 S17G26      N/A                   
KEALAKOMO*       N/A     79  61  53 N15G26      N/A                   
KAUPULEHU*       N/A     75  61  60 W7          N/A                   
KAPAPALA*        N/A     70  56  61 W3G12       N/A                   
LOWER KAHUKU*    N/A     63  54  72 VRB3G16     N/A                   
PUHE CS*         N/A     79  57  47 E7G24       N/A                   
PUHO CS*         N/A     78  56  45 NE2         N/A                   
PTA KEAMUKU*     N/A     64  59  82 CALM        N/A                   
WAIKOLOA*        N/A     77  59  53 E7G17       N/A                   
$$

HIZ027>028-261900-
BIG ISLAND OF HAWAII INTERIOR AND SUMMMITS-
  
CITY           SKY/WX    TMP DP  RH WIND       PRES   REMARKS
BRADSHAW FIELD MOSUNNY   58  39  49 E7G20     30.44S                  
MK VISITOR CEN   N/A     52   9  17 E18         N/A                   
MAUNA KEA*     NOT AVBL                                               
MAUNA LOA*       N/A     43   0  16 MISG        N/A                   
MAUNA LOA 1*   NOT AVBL                                               
PTA KIPUKA*      N/A    N/A N/A N/A E18G30      N/A                   
PTA RANGE 17*    N/A     75  45  33 E9G24       N/A                   
PTA WEST*        N/A     68  34  28 E13G22      N/A                   
NENE CABIN*      N/A    N/A N/A N/A E8G15       N/A                   
AHUMOA*          N/A    N/A N/A N/A W3          N/A                   
PTA PORTABLE*  NOT AVBL                                               
PUU MALI*        N/A     64  14  14 SE17G35     N/A                   
$$

HIC003-261900-
NORTHWEST ISLANDS-
  
CITY           SKY/WX    TMP DP  RH WIND       PRES   REMARKS
MIDWAY ISLAND  PTCLDY    68  64  88 SW6       30.07S                  
MIDWAY NOS*      N/A     70 N/A N/A MISG      30.07R                  
FRENCH FRIGATE NOT AVBL                                               
$$

PHZ110>124-180-261900-
BUOY REPORTS
  
STATION/POSITION TIME  TEMP    WIND        PRES    WAVE   SWELL
                       AIR SEA DIR/SP/G            HT/PER HT/DIR
                 (UTC) (F)     (DEG/KT/KT) (MB)    (FT/S) (FT/D)
BUOY 51001       1820   75 76  100/ 14/ 19 1023.0
BUOY 51101       1750   75 76   90/ 14/ 17 1023.3R  11/16  11/290
BUOY 51100       NOT AVBL
BUOY 51002       1820   77 78   70/ 23/ 29 1019.6
BUOY 51003       1750   77 78   60/ 14/ 16 1020.7R  11/17  10/280
BUOY 51004       1750      77   70/ 19/ 25 1020.5R  10/ 9   7/100
BARBERS PT BUOY  NOT AVBL
WAIMEA BAY BUOY  1802      75                N/A     9/17   8/310
KAILUA BAY BUOY  1804      76                N/A     7/ 7   2/320
LANAI BUOY       1815      78                N/A     5/18   3/270
BARBERS PT 2     NOT AVBL
PAUWELA MAUI     1809      76                N/A     6/17   3/320
HILO             1812      77                N/A     8/10   3/110
KANEOHE BAY BUOY 1825      75                N/A     5/ 7   2/340
HANALEI KAUAI    1822      77                N/A     8/17   7/300
KAHULUI HARBOR   1812   76 77   50/ 19/ 25 1021.6
HONOLULU HARBOR  1812   78 78   70/  3/ 13 1023.0
KILO NALU        NOT AVBL
HILO HARBOR      1812   71 76  270/  8/ 11 1023.5
MOKUOLOE         1736   77 78   90/  9/ 14 1022.5R
NAWILIWILI       1812   76 79   70/ 12/ 13 1023.0
WHOTS BUOY       NOT AVBL
BUOY 51028       NOT AVBL
$$

......................KEY........................................
  SKY/WX - SKY CONDITIONS/PRESENT WEATHER
  TMP    - TEMPERATURE IN FAHRENHEIT
  DWPT   - DEWPOINT IN FAHRENHEIT
  RH     - RELATIVE HUMIDITY IN PERCENT
  WIND   - DIRECTION AND SPEED /MPH FOR ISLANDS...KTS FOR BUOYS/
  PRES   - MEAN SEA LEVEL PRESSURE IN INCHES OF HG
  VSB    - VISIBILITY IN MILES
  HX     - HEAT INDEX
  WCI    - WIND CHILL INDEX
  VRB    - VARIABLE WIND DIRECTION
  N/A    - NOT AVAILABLE
  

Return to Home page


Western Regional Climate Center, wrcc@dri.edu